N8ASV Weather Reports


time (UTC)temp
C
wind
direction
speed
KPH
gust
KPH
rain 1hr
cm
rain 24hr
cm
rain mn
cm
humidity
%
barometer
mb
20260902211015 33 248 3.2 8.0 0.00 0.00 0.00 57 1014.1
20260902210016 33 248 3.2 8.0 0.00 0.00 0.00 58 1014.2
20260902205016 34 225 3.2 8.0 0.00 0.00 0.00 58 1014.3
20260902204016 34 248 1.6 4.8 0.00 0.00 0.00 57 1014.3
20260902203015 34 248 3.2 6.4 0.00 0.00 0.00 57 1014.3
20260902202015 34 248 3.2 4.8 0.00 0.00 0.00 56 1014.3
20260902201015 35 248 3.2 6.4 0.00 0.00 0.00 55 1014.3
20260902200016 35 248 3.2 4.8 0.00 0.00 0.00 56 1014.4
20260902195016 35 248 3.2 6.4 0.00 0.00 0.00 55 1014.6
20260902194016 35 248 3.2 8.0 0.00 0.00 0.00 53 1014.7
20260902193036 35 248 3.2 8.0 0.00 0.00 0.00 54 1014.8
20260902192015 35 248 3.2 8.0 0.00 0.00 0.00 55 1015.0
20260902191015 35 248 3.2 6.4 0.00 0.00 0.00 54 1015.1
20260902190017 35 248 3.2 6.4 0.00 0.00 0.00 55 1015.2
20260902185017 35 203 3.2 8.0 0.00 0.00 0.00 56 1015.2
20260902184017 35 180 3.2 6.4 0.00 0.00 0.00 58 1015.3
20260902183037 35 248 3.2 9.7 0.00 0.00 0.00 56 1015.3
20260902182057 35 225 3.2 6.4 0.00 0.00 0.00 58 1015.3
20260902181017 35 203 4.8 16.1 0.00 0.00 0.00 56 1015.4
20260902180017 35 225 1.6 4.8 0.00 0.00 0.00 57 1015.4
20260902175057 35 248 3.2 4.8 0.00 0.00 0.00 56 1015.6
20260902174017 35 158 1.6 3.2 0.00 0.00 0.00 57 1015.7
20260902173017 35 248 1.6 4.8 0.00 0.00 0.00 58 1015.9
20260902172017 34 248 4.8 11.3 0.00 0.00 0.00 57 1015.9
20260902171017 34 248 1.6 6.4 0.00 0.00 0.00 58 1016.0
20260902170017 34 248 3.2 9.7 0.00 0.00 0.00 55 1016.1
20260902165017 33 248 3.2 4.8 0.00 0.00 0.00 54 1016.2
20260902164017 34 248 4.8 8.0 0.00 0.00 0.00 52 1016.2
20260902163017 34 203 3.2 6.4 0.00 0.00 0.00 55 1016.2
20260902162037 34 248 1.6 4.8 0.00 0.00 0.00 54 1016.3
20260902161057 33 203 3.2 8.0 0.00 0.00 0.00 55 1016.2
20260902160016 33 203 3.2 8.0 0.00 0.00 0.00 58 1016.4
20260902155017 33 203 3.2 6.4 0.00 0.00 0.00 58 1016.3
20260902154017 33 203 1.6 8.0 0.00 0.00 0.00 59 1016.4
20260902153017 33 203 1.6 4.8 0.00 0.00 0.00 60 1016.5
20260902152016 32 203 1.6 6.4 0.00 0.00 0.00 60 1016.5
20260902151016 32 180 1.6 6.4 0.00 0.00 0.00 62 1016.6
20260902150016 32 0.0 8.0 0.00 0.00 0.00 64 1016.5
20260902145016 31 0.0 1.6 0.00 0.00 0.00 65 1016.6
20260902144036 31 0.0 1.6 0.00 0.00 0.00 67 1016.6
20260902143016 30 0.0 1.6 0.00 0.00 0.00 71 1016.6
20260902142016 30 158 1.6 3.2 0.00 0.00 0.00 71 1016.7
20260902141016 28 158 1.6 4.8 0.00 0.00 0.00 76 1016.6
20260902140016 28 180 3.2 6.4 0.00 0.00 0.00 76 1016.6
20260902135016 27 158 3.2 6.4 0.00 0.00 0.00 77 1016.7
20260902134016 26 158 1.6 4.8 0.00 0.00 0.00 79 1016.7
20260902133016 26 180 1.6 4.8 0.00 0.00 0.00 83 1016.8
20260902132016 25 180 1.6 3.2 0.00 0.00 0.00 85 1016.7
20260902131036 24 158 1.6 4.8 0.00 0.00 0.00 88 1016.6
20260902130056 23 0.0 3.2 0.00 0.00 0.00 90 1016.7
20260902125016 23 0.0 3.2 0.00 0.00 0.00 94 1016.6
20260902124016 22 0.0 0.0 0.00 0.00 0.00 94 1016.6
20260902123016 22 0.0 0.0 0.00 0.00 0.00 94 1016.6
20260902122036 21 0.0 0.0 0.00 0.00 0.00 93 1016.6
20260902121016 21 0.0 0.0 0.00 0.00 0.00 93 1016.4
20260902120016 21 0.0 0.0 0.00 0.00 0.00 93 1016.3
20260902115016 20 0.0 0.0 0.00 0.00 0.00 92 1016.3
20260902114016 20 0.0 0.0 0.00 0.00 0.00 92 1016.2
20260902113015 20 0.0 0.0 0.00 0.00 0.00 92 1016.1
20260902112015 20 0.0 0.0 0.00 0.00 0.00 93 1016.2
20260902111036 20 0.0 0.0 0.00 0.00 0.00 92 1016.0
20260902110015 20 0.0 0.0 0.00 0.00 0.00 92 1015.9
20260902105015 20 0.0 0.0 0.00 0.00 0.00 92 1016.0
20260902104015 20 0.0 0.0 0.00 0.00 0.00 92 1016.0
20260902103015 20 0.0 0.0 0.00 0.00 0.00 92 1016.0
20260902102015 20 0.0 0.0 0.00 0.00 0.00 92 1015.9
20260902101017 21 0.0 0.0 0.00 0.00 0.00 92 1015.9
20260902100017 21 0.0 0.0 0.00 0.00 0.00 92 1015.8
20260902095017 21 0.0 0.0 0.00 0.00 0.00 92 1015.8
20260902094017 21 0.0 0.0 0.00 0.00 0.00 92 1015.8
20260902093017 21 0.0 0.0 0.00 0.00 0.00 92 1015.7
20260902092017 21 0.0 0.0 0.00 0.00 0.00 92 1015.8
20260902091017 21 0.0 0.0 0.00 0.00 0.00 92 1015.6
20260902090017 21 0.0 0.0 0.00 0.00 0.00 92 1015.5
20260902085037 21 0.0 0.0 0.00 0.00 0.00 92 1015.5
20260902084037 21 0.0 0.0 0.00 0.00 0.00 92 1015.4
20260902083017 21 0.0 0.0 0.00 0.00 0.00 92 1015.2
20260902082017 21 0.0 0.0 0.00 0.00 0.00 92 1015.2
20260902081037 21 0.0 0.0 0.00 0.00 0.00 91 1015.1
20260902080017 21 0.0 0.0 0.00 0.00 0.00 91 1015.0
20260902075017 21 0.0 0.0 0.00 0.00 0.00 91 1015.1
20260902074037 21 0.0 0.0 0.00 0.00 0.00 91 1014.9
20260902073017 21 0.0 0.0 0.00 0.00 0.00 91 1015.0
20260902072017 21 0.0 0.0 0.00 0.00 0.00 92 1014.9
20260902071016 21 0.0 0.0 0.00 0.00 0.00 91 1015.0
20260902070016 21 0.0 0.0 0.00 0.00 0.00 91 1015.0
20260902065037 21 0.0 0.0 0.00 0.00 0.00 91 1015.1
20260902064017 21 0.0 0.0 0.00 0.00 0.00 91 1015.0
20260902063016 21 0.0 0.0 0.00 0.00 0.00 91 1015.0
20260902062016 22 0.0 0.0 0.00 0.00 0.00 91 1015.0
20260902061016 22 0.0 0.0 0.00 0.00 0.00 91 1015.0
20260902060016 22 0.0 0.0 0.00 0.00 0.00 91 1015.1
20260902055017 22 0.0 0.0 0.00 0.00 0.00 90 1015.1
20260902054036 22 0.0 0.0 0.00 0.00 0.00 91 1015.1
20260902053016 22 0.0 0.0 0.00 0.00 0.00 91 1015.2
20260902052016 22 0.0 0.0 0.00 0.00 0.00 91 1015.1
20260902051016 22 0.0 0.0 0.00 0.00 0.00 90 1015.1
20260902050036 22 0.0 0.0 0.00 0.00 0.00 90 1015.2
20260902045016 22 0.0 0.0 0.00 0.00 0.00 90 1015.1
20260902044016 22 0.0 0.0 0.00 0.00 0.00 90 1015.2
20260902043017 22 0.0 0.0 0.00 0.00 0.00 90 1015.2
20260902042016 22 0.0 0.0 0.00 0.00 0.00 90 1015.1
20260902041016 22 0.0 0.0 0.00 0.00 0.00 90 1015.1
20260902040016 22 0.0 0.0 0.00 0.00 0.00 90 1015.2
20260902035015 23 0.0 0.0 0.00 0.00 0.00 89 1015.2
20260902034015 23 0.0 0.0 0.00 0.00 0.00 89 1015.1
20260902033015 23 0.0 0.0 0.00 0.00 0.00 89 1015.1
20260902032016 23 0.0 0.0 0.00 0.00 0.00 89 1015.1
20260902031015 23 0.0 0.0 0.00 0.00 0.00 89 1015.1
20260902030015 23 0.0 0.0 0.00 0.00 0.00 88 1015.1
20260902025015 23 0.0 0.0 0.00 0.00 0.00 88 1015.1
20260902024015 23 0.0 0.0 0.00 0.00 0.00 88 1015.1
20260902023015 23 0.0 0.0 0.00 0.00 0.00 88 1015.0
20260902022017 24 0.0 0.0 0.00 0.00 0.00 87 1015.0
20260902021017 24 0.0 0.0 0.00 0.00 0.00 87 1014.9
20260902020017 24 0.0 0.0 0.00 0.00 0.00 86 1015.0
20260902015017 24 0.0 0.0 0.00 0.00 0.00 86 1014.9
20260902014017 25 0.0 0.0 0.00 0.00 0.00 85 1014.8
20260902013037 25 0.0 0.0 0.00 0.00 0.00 85 1014.8
20260902012058 25 0.0 0.0 0.00 0.00 0.00 84 1014.7
20260902011017 25 0.0 0.0 0.00 0.00 0.00 83 1014.4
20260902010037 25 0.0 1.6 0.00 0.00 0.00 82 1014.5
20260902005017 26 0.0 0.0 0.00 0.00 0.00 82 1014.3
20260902004017 26 0.0 0.0 0.00 0.00 0.00 81 1014.3
20260902003017 26 0.0 0.0 0.00 0.00 0.00 80 1014.3
20260902002017 27 0.0 0.0 0.00 0.00 0.00 79 1014.3
20260902001017 27 0.0 0.0 0.00 0.00 0.00 78 1014.4
20260902000017 28 0.0 0.0 0.00 0.00 0.00 76 1014.7
20260901235037 28 0.0 0.0 0.00 0.00 0.00 75 1014.6
20260901234016 29 0.0 0.0 0.00 0.00 0.00 74 1014.6
20260901233017 30 0.0 0.0 0.00 0.00 0.00 72 1014.7
20260901232057 30 0.0 0.0 0.00 0.00 0.00 71 1014.7
20260901231017 31 0.0 0.0 0.00 0.00 0.00 68 1014.8
20260901230016 31 0.0 1.6 0.00 0.00 0.00 66 1014.8
20260901225017 32 0.0 0.0 0.00 0.00 0.00 64 1014.7
20260901224016 32 0.0 1.6 0.00 0.00 0.00 61 1014.7
20260901223056 33 248 1.6 3.2 0.00 0.00 0.00 58 1014.6
20260901222056 33 248 1.6 3.2 0.00 0.00 0.00 58 1014.6
20260901221016 33 0.0 3.2 0.00 0.00 0.00 57 1014.7
20260901220036 33 248 1.6 4.8 0.00 0.00 0.00 56 1014.5
20260901215016 33 248 1.6 4.8 0.00 0.00 0.00 56 1014.5
20260901214016 33 248 1.6 3.2 0.00 0.00 0.00 55 1014.5
20260901213016 33 248 1.6 4.8 0.00 0.00 0.00 55 1014.5
20260901212016 33 203 1.6 4.8 0.00 0.00 0.00 55 1014.6